This is the latest recevied weather packets stored in our database for station/object IZ8QAD-10. If no packets are shown the sender has not sent any weather packets the latest 10 day(s).
| Time | Temp. | Humidity | Pressure | Rain* | Wind** | Luminosity | Snow |
|---|---|---|---|---|---|---|---|
| 1777843347 | 28.33° C | 31% | 972.2 hPa | - | - | - | - |
| 1777841546 | 28.33° C | 31% | 972.2 hPa | - | - | - | - |
| 1777839746 | 28.33° C | 30% | 972 hPa | - | - | - | - |
| 1777837946 | 27.78° C | 30% | 971.8 hPa | - | - | - | - |
| 1777836146 | 28.33° C | 30% | 971.7 hPa | - | - | - | - |
| 1777834346 | 28.33° C | 31% | 971.4 hPa | - | - | - | - |
| 1777832546 | 28.33° C | 30% | 971.5 hPa | - | - | - | - |
| 1777830745 | 28.33° C | 31% | 971 hPa | - | - | - | - |
| 1777828957 | 28.33° C | 31% | 970.9 hPa | - | - | - | - |
| 1777828945 | 28.33° C | 31% | 970.9 hPa | - | - | - | - |
| 1777827145 | 27.78° C | 31% | 970.9 hPa | - | - | - | - |
| 1777825345 | 27.78° C | 31% | 970.9 hPa | - | - | - | - |
| 1777823545 | 27.22° C | 30% | 970.9 hPa | - | - | - | - |
| 1777821745 | 27.22° C | 29% | 970.9 hPa | - | - | - | - |
| 1777819944 | 26.67° C | 30% | 971 hPa | - | - | - | - |
| 1777818144 | 26.11° C | 30% | 970.8 hPa | - | - | - | - |
| 1777816344 | 26.11° C | 30% | 971 hPa | - | - | - | - |
| 1777814544 | 25.56° C | 30% | 971 hPa | - | - | - | - |
| 1777812744 | 25.56° C | 30% | 971.1 hPa | - | - | - | - |
| 1777810944 | 25° C | 30% | 971.5 hPa | - | - | - | - |
| 1777809143 | 24.44° C | 30% | 971.6 hPa | - | - | - | - |
| 1777807343 | 24.44° C | 30% | 971.6 hPa | - | - | - | - |
| 1777805543 | 24.44° C | 30% | 971.7 hPa | - | - | - | - |
| 1777803743 | 23.89° C | 29% | 972 hPa | - | - | - | - |
| 1777801943 | 23.89° C | 30% | 972.3 hPa | - | - | - | - |
* Rain since midnight (hover to see other rain measurements)
** Current wind speed in m/s (hover to see current wind gust speed)